Simultaneous Nadir Overpasses (SNOs) Predictions

Prediction of SNOs between LANDSAT-8 and METOP-B Satellite Orbit:

Table of predicted SNOs for the next 14.0 days since TLE Epoch: 6/1/2019
Index Date (LANDSAT-8) Time (LANDSAT-8) Lat,Lon (LANDSAT-8) SZA (LANDSAT-8 ) Date (METOP-B) Time (METOP-B) Lat,Lon (METOP-B) SZA (METOP-B ) Distance(km) Time Diff (sec)
1 06/03/2019 11:13:37 81.15, 52.01 61.11 06/03/2019 11:12:46 81.15, 52.19 61.10 3.17 51
2 06/03/2019 12:03:04 -81.15,-140.35 118.90 06/03/2019 12:03:27 -81.15,-140.35 118.89 0.49 23
3 06/06/2019 06:47:54 81.14, 118.27 60.75 06/06/2019 06:47:10 81.14, 118.15 60.71 2.19 44
4 06/06/2019 07:37:20 -81.16, -73.70 119.20 06/06/2019 07:37:49 -81.17, -73.61 119.18 1.44 29
5 06/09/2019 02:22:10 81.15,-175.11 60.50 06/09/2019 02:21:32 81.15,-175.15 60.47 0.87 38
6 06/09/2019 03:11:36 -81.18, -7.07 119.45 06/09/2019 03:12:11 -81.17, -6.89 119.42 2.97 35
7 06/11/2019 21:56:26 81.14,-108.88 60.24 06/11/2019 21:55:54 81.14,-108.84 60.23 0.94 32
8 06/11/2019 22:45:52 -81.16, 59.18 119.71 06/11/2019 22:46:34 -81.16, 59.06 119.70 2.09 42
9 06/14/2019 17:30:42 81.15, -42.31 60.08 06/14/2019 17:30:16 81.15, -42.16 60.09 2.58 26




NCC Satellite Simultaneous Nadir Overpasses (SNOs) Prediction Service
